TimeADT,TemperatureF,Dew PointF,Humidity,Sea Level PressureIn,VisibilityMPH,Wind Direction,Wind SpeedMPH,Gust SpeedMPH,PrecipitationIn,Events,Conditions,WindDirDegrees,DateUTC
12:00 AM,53.6,48.2,82,29.99,15.0,SW,9.2,-,N/A,,Scattered Clouds,220,2013-09-07 03:00:00
1:00 AM,53.6,48.2,82,29.99,15.0,SW,9.2,-,N/A,,Scattered Clouds,220,2013-09-07 04:00:00
2:00 AM,53.6,48.2,82,29.97,15.0,SW,9.2,-,N/A,,Scattered Clouds,220,2013-09-07 05:00:00
3:00 AM,52,49,87,29.96,15,South,8.1,,,,Clear,190,2013-09-07 06:00:00
3:00 AM,51.8,50.0,94,29.96,15.0,South,8.1,-,N/A,,Scattered Clouds,180,2013-09-07 06:00:00
4:00 AM,53.6,50.0,88,29.95,15.0,SSW,8.1,-,N/A,,Scattered Clouds,210,2013-09-07 07:00:00
5:00 AM,55.4,48.2,77,29.94,15.0,SW,9.2,-,N/A,,Scattered Clouds,220,2013-09-07 08:00:00
6:00 AM,55.4,48.2,77,29.94,15.0,SW,11.5,17.3,N/A,,Partly Cloudy,220,2013-09-07 09:00:00
7:00 AM,55.4,48.2,77,29.94,15.0,SW,11.5,-,N/A,,Partly Cloudy,230,2013-09-07 10:00:00
8:00 AM,57.2,51.8,82,29.93,15.0,SW,15.0,21.9,N/A,,Partly Cloudy,220,2013-09-07 11:00:00
9:00 AM,59,52,72,29.92,15,SSW,16.1,,,,Scattered Clouds,210,2013-09-07 12:00:00
9:00 AM,59.0,51.8,77,29.92,15.0,SSW,15.0,24.2,N/A,,Partly Cloudy,210,2013-09-07 12:00:00
10:00 AM,60.8,53.6,77,29.91,15.0,SW,13.8,23.0,N/A,,Partly Cloudy,220,2013-09-07 13:00:00
11:00 AM,62.6,51.8,68,29.89,15.0,SW,15.0,24.2,N/A,,Scattered Clouds,220,2013-09-07 14:00:00
12:00 PM,66.2,51.8,60,29.88,15.0,SW,19.6,28.8,N/A,,Mostly Cloudy,220,2013-09-07 15:00:00
1:00 PM,68.0,50.0,52,29.85,15.0,SSW,21.9,31.1,N/A,,Scattered Clouds,210,2013-09-07 16:00:00
2:00 PM,69.8,51.8,53,29.83,15.0,SSW,20.7,34.5,N/A,,Scattered Clouds,210,2013-09-07 17:00:00
3:00 PM,69,50,40,29.81,15,SSW,21.9,,,,Scattered Clouds,210,2013-09-07 18:00:00
3:00 PM,69.8,50.0,49,29.80,15.0,SW,20.7,29.9,N/A,,Mostly Cloudy,220,2013-09-07 18:00:00
4:00 PM,68.0,48.2,49,29.79,15.0,SW,19.6,28.8,N/A,,Mostly Cloudy,220,2013-09-07 19:00:00
5:00 PM,69.8,48.2,46,29.79,15.0,SSW,18.4,29.9,N/A,,Mostly Cloudy,210,2013-09-07 20:00:00
6:00 PM,68.0,48.2,49,29.78,15.0,SW,13.8,24.2,N/A,,Mostly Cloudy,220,2013-09-07 21:00:00
7:00 PM,66.2,50.0,56,29.78,15.0,SW,12.7,20.7,N/A,,Mostly Cloudy,220,2013-09-07 22:00:00
8:00 PM,64.4,50.0,59,29.78,15.0,SW,12.7,20.7,N/A,,Overcast,220,2013-09-07 23:00:00
9:00 PM,64,48,45,29.78,15,SW,12.7,,,,Overcast,220,2013-09-08 00:00:00
9:00 PM,64.4,48.2,56,29.78,15.0,SW,13.8,-,N/A,,Overcast,230,2013-09-08 00:00:00
10:00 PM,64.4,48.2,56,29.76,15.0,SW,15.0,25.3,N/A,,Overcast,230,2013-09-08 01:00:00
11:00 PM,62.6,48.2,59,29.76,15.0,SW,13.8,20.7,N/A,,Overcast,220,2013-09-08 02:00:00